Leadville, CO

7:08 PM MST on November 11, 2019 (GMT -0700)
Lake County

Weather History for KLXV - September, 2019

Change the Weather History Date:

Wednesday, September 11, 2019

  Actual Average Record
Temperature  
Mean Temperature 50 °F -  
Max Temperature 64 °F 62 °F 71 °F (1990)
Min Temperature 37 °F 32 °F 22 °F (2010)
Degree Days  
Heating Degree Days 15 18  
Month to date heating degree days 181  
Since 1 July heating degree days 903  
Cooling Degree Days 0 0  
Month to date cooling degree days 0  
Year to date cooling degree days 0  
Moisture  
Dew Point 31 °F    
Average Humidity 49    
Maximum Humidity 83    
Minimum Humidity 28    
Precipitation  
Precipitation 0.00 in 0.04 in 0.30 in (2012)
Month to date precipitation 0.47  
Year to date precipitation 9.42  
Sea Level Pressure  
Sea Level Pressure 30.01 in    
Wind  
Wind Speed 7 mph (SSW)    
Max Wind Speed 20 mph    
Max Gust Speed 36 mph    
Visibility 7 miles    
Events      
T = Trace of Precipitation, MM = Missing Value Source: NWS Daily Summary

Daily Weather History Graph

Daily Weather History Graph

Search for Another Location

Airport or City:

Astronomy

Sep. 11, 2019 Rise Set
Actual Time 6:42 AM MDT 7:20 PM MDT
Civil Twilight 6:15 AM MDT 7:47 PM MDT
Nautical Twilight 5:43 AM MDT 8:19 PM MDT
Astronomical Twilight 5:11 AM MDT 8:51 PM MDT
Moon 6:32 PM MDT (9/11) 4:09 AM MDT (9/11)
Length of Visible Light 13h 31m
Length of Day
12h 37m
Waxing Gibbous, 95% of the Moon is Illuminated
Sep 11
Waxing Gibbous
Sep 13
Full
Sep 21
Last Quarter
Sep 28
New
Oct 5
First Quarter

Hourly Weather History & Observations

Time (MDT) Temp. Windchill Dew Point Humidity Pressure Visibility Wind Dir Wind Speed Gust Speed Precip Events Conditions
12:53 AM 46.9 °F - 35.1 °F 63% 29.81 in 10.0 mi Calm Calm - N/A   Partly Cloudy
1:53 AM 43.0 °F 39.5 °F 34.0 °F 71% 29.81 in 10.0 mi ENE 5.8 mph - N/A   Mostly Cloudy
2:53 AM 43.0 °F 41.3 °F 34.0 °F 71% 29.81 in 10.0 mi ENE 3.5 mph - N/A   Mostly Cloudy
3:53 AM 43.0 °F - 34.0 °F 71% 29.79 in 10.0 mi Calm Calm - N/A   Overcast
4:53 AM 41.0 °F - 34.0 °F 76% 29.82 in 10.0 mi Calm Calm - N/A   Mostly Cloudy
5:53 AM 37.9 °F - 33.1 °F 83% 29.83 in 10.0 mi Calm Calm - N/A   Mostly Cloudy
6:53 AM 39.9 °F 36.7 °F 34.0 °F 79% 29.86 in 10.0 mi East 4.6 mph - N/A   Overcast
7:38 AM 44.1 °F 42.5 °F 36.0 °F 73% 30.29 in 1.5 mi South 3.5 mph - N/A   Haze
7:48 AM 44.6 °F - 37.4 °F 76% 30.29 in 3.0 mi Calm Calm - N/A   Haze
7:53 AM 44.1 °F - 37.0 °F 76% 29.86 in 7.0 mi Calm Calm - N/A   Overcast
8:24 AM 48.0 °F - 37.0 °F 66% 30.29 in 1.5 mi South 4.6 mph - N/A   Haze
8:35 AM 46.9 °F - 37.0 °F 68% 30.29 in 4.0 mi Calm Calm - N/A   Haze
8:53 AM 48.0 °F - 37.9 °F 68% 29.84 in 10.0 mi South 3.5 mph - N/A   Mostly Cloudy
9:30 AM 55.4 °F - 35.6 °F 47% 30.29 in 1.5 mi South 10.4 mph 17.3 mph N/A   Haze
9:53 AM 55.9 °F - 33.1 °F 42% 29.81 in 8.0 mi South 10.4 mph 25.3 mph N/A   Mostly Cloudy
10:53 AM 55.0 °F - 28.0 °F 35% 29.81 in 6.0 mi South 13.8 mph 21.9 mph N/A   Haze
11:53 AM 57.0 °F - 28.0 °F 33% 29.81 in 4.0 mi South 17.3 mph 24.2 mph N/A   Haze
12:32 PM 59.0 °F - 28.0 °F 31% 30.27 in 2.5 mi SSW 8.1 mph 23.0 mph N/A   Haze
12:39 PM 59.0 °F - 28.0 °F 31% 30.26 in 1.2 mi North - - N/A   Haze
12:46 PM 59.0 °F - 28.0 °F 31% 30.27 in 3.0 mi SSW 12.7 mph 21.9 mph N/A   Haze
12:53 PM 57.9 °F - 28.0 °F 32% 29.79 in 5.0 mi South 17.3 mph 25.3 mph N/A   Haze
1:25 PM 61.0 °F - 28.9 °F 30% 30.27 in 1.8 mi SW 17.3 mph 27.6 mph N/A   Haze
1:30 PM 59.0 °F - 28.0 °F 31% 30.27 in 3.0 mi SSW 11.5 mph 27.6 mph N/A   Haze
1:41 PM 59.0 °F - 28.9 °F 32% 30.27 in 2.5 mi SSW 16.1 mph 27.6 mph N/A   Haze
1:48 PM 60.8 °F - 28.4 °F 29% 30.26 in 10.0 mi South 17.3 mph 25.3 mph N/A   Mostly Cloudy
1:53 PM 61.0 °F - 28.0 °F 29% 29.79 in 10.0 mi South 19.6 mph 31.1 mph N/A   Mostly Cloudy
2:16 PM 61.0 °F - 28.9 °F 30% 30.26 in 1.8 mi WSW 13.8 mph 24.2 mph N/A   Haze
2:40 PM 61.0 °F - 28.9 °F 30% 30.24 in 10.0 mi SW 15.0 mph 25.3 mph N/A   Mostly Cloudy
2:53 PM 63.0 °F - 28.9 °F 28% 29.76 in 10.0 mi SSW 16.1 mph 21.9 mph N/A   Mostly Cloudy
3:53 PM 61.0 °F - 28.9 °F 30% 29.78 in 8.0 mi SW 17.3 mph 29.9 mph N/A   Overcast
4:08 PM 61.0 °F - 30.0 °F 31% 30.25 in 8.0 mi SW 19.6 mph 35.7 mph N/A   Scattered Clouds
4:17 PM 60.1 °F - 28.0 °F 30% 30.25 in 2.5 mi SW 19.6 mph 31.1 mph N/A   Haze
4:53 PM 57.9 °F - 28.0 °F 32% 29.81 in 10.0 mi SW 11.5 mph 19.6 mph N/A   Partly Cloudy
5:53 PM 57.0 °F - 28.9 °F 34% 29.85 in 7.0 mi SSW 13.8 mph - N/A   Mostly Cloudy
6:53 PM 55.0 °F - 23.0 °F 29% 29.86 in 10.0 mi SSW 10.4 mph - N/A   Overcast
7:53 PM 48.0 °F - 30.9 °F 52% 29.91 in 10.0 mi NW 12.7 mph 27.6 mph N/A   Overcast
8:53 PM 44.1 °F 37.7 °F 30.9 °F 60% 29.96 in 10.0 mi NNW 12.7 mph 23.0 mph N/A   Mostly Cloudy
9:53 PM 42.1 °F 38.4 °F 30.9 °F 65% 29.94 in 10.0 mi Variable 5.8 mph 18.4 mph N/A   Partly Cloudy
10:53 PM 39.0 °F 32.8 °F 30.9 °F 73% 29.99 in 10.0 mi NW 9.2 mph 18.4 mph N/A   Overcast
11:53 PM 39.0 °F 31.8 °F 28.9 °F 67% 29.98 in 10.0 mi NNW 11.5 mph 18.4 mph N/A   Overcast